Location: Hopewell Observatory
(38.8698°N, 77.6988°W)
Time: 20:23:54
(UTC-04:00)

Cosmos 1725 Rocket - Pass Details

Date: 26 May 2018
Orbit: 963 x 990 km, 82.9° (Epoch: 19 October)

Event Time Altitude Azimuth Distance (km) Brightness Sun altitude
Rises 20:57:58 0° 188° (S) 3,632 6.7 -6.2°
Reaches altitude 10° 21:00:27 10° 190° (S) 2,691 6.1 -6.6°
Maximum altitude 21:06:37 80° 277° (W) 985 4.2 -7.6°
Drops below altitude 10° 21:12:51 10° 5° (N) 2,720 6.8 -8.5°
Sets 21:15:23 0° 6° (N) 3,675 7.5 -8.9°
